Weather History for MMCZ - August, 2013

Change the Weather History Date:

Sunday, August 4, 2013

  Actual Average Record
Temperature  
Mean Temperature 78 °F -  
Max Temperature 86 °F 90 °F 95 °F (2005)
Min Temperature 71 °F 76 °F 69 °F (2014)
Cooling Degree Days 14    
Growing Degree Days 28 (Base 50)    
Moisture  
Dew Point 74 °F    
Average Humidity 85    
Maximum Humidity 100    
Minimum Humidity 70    
Precipitation  
Precipitation 0.00 in - - ()
Sea Level Pressure  
Sea Level Pressure 30.04 in    
Wind  
Wind Speed 5 mph ()    
Max Wind Speed 17 mph    
Max Gust Speed 21 mph    
Visibility 7.6 miles    
Events      
Averages and records for this station are not official NWS values.
T = Trace of Precipitation, MM = Missing Value Source: Averaged Metar Reports

Daily Weather History Graph

Daily Weather History Graph

Search for Another Location

Airport or City:

Trip Planner

Search our weather history database for the weather conditions in past years. The results will help you decide how hot, cold, wet, or windy it might be!

Date:

Astronomy

Aug. 04, 2013 Rise Set
Actual Time 6:23 AM CDT 7:23 PM CDT
Civil Twilight 6:00 AM CDT 7:47 PM CDT
Nautical Twilight 5:32 AM CDT 8:14 PM CDT
Astronomical Twilight 5:04 AM CDT 8:43 PM CDT
Moon 4:26 AM CDT (8/4) 5:46 PM CDT (8/4)
Length of Visible Light 13h 47m
Length of Day
13h 00m
Waning Crescent, 4% of the Moon is Illuminated
Aug 4
Waning Crescent
Aug 6
New
Aug 14
First Quarter
Aug 20
Full
Aug 28
Last Quarter

Hourly Weather History & Observations

Time (CDT) Temp. Heat Index Dew Point Humidity Pressure Visibility Wind Dir Wind Speed Gust Speed Precip Events Conditions
1:00 AM 75.2 °F - 73.4 °F 94% 30.05 in 7.0 mi ESE 3.5 mph - N/A   Partly Cloudy
1:40 AM 75.2 °F - 73.4 °F 94% 30.06 in 7.0 mi ESE 6.9 mph - N/A   Partly Cloudy
3:16 AM 73.4 °F - 73.4 °F 100% 30.02 in 7.0 mi Calm Calm - N/A   Partly Cloudy
3:47 AM 73.4 °F - 71.6 °F 94% 30.05 in 7.0 mi Calm Calm - N/A   Clear
4:40 AM 71.6 °F - 71.6 °F 100% 30.02 in 7.0 mi Calm Calm - N/A   Clear
5:41 AM 71.6 °F - 71.6 °F 100% 30.02 in 7.0 mi Calm Calm - N/A   Clear
6:49 AM 71.6 °F - 71.6 °F 100% 30.01 in 8.0 mi Calm Calm - N/A   Partly Cloudy
7:45 AM 77.0 °F - 75.2 °F 94% 30.05 in 8.0 mi East 4.6 mph - N/A   Clear
8:45 AM 82.4 °F 89.5 °F 75.2 °F 79% 30.06 in 8.0 mi East 9.2 mph - N/A   Scattered Clouds
9:41 AM 84.2 °F 90.9 °F 73.4 °F 70% 30.10 in 8.0 mi East 11.5 mph - N/A   Scattered Clouds
10:44 AM 84.2 °F 90.9 °F 73.4 °F 70% 30.08 in 8.0 mi East 6.9 mph - N/A   Mostly Cloudy
11:40 AM 84.2 °F 90.9 °F 73.4 °F 70% 30.08 in 8.0 mi East 9.2 mph 20.7 mph N/A   Mostly Cloudy
12:41 PM 84.2 °F 92.3 °F 75.2 °F 74% 30.05 in 8.0 mi ENE 13.8 mph - N/A   Mostly Cloudy
1:45 PM 84.2 °F 92.3 °F 75.2 °F 74% 30.05 in 8.0 mi NE 16.1 mph - N/A   Mostly Cloudy
2:41 PM 84.2 °F 92.3 °F 75.2 °F 74% 30.02 in 8.0 mi ENE 11.5 mph - N/A   Mostly Cloudy
3:45 PM 86.0 °F 95.1 °F 75.2 °F 70% 30.04 in 8.0 mi ENE 17.3 mph - N/A   Mostly Cloudy
4:43 PM 84.2 °F 94.1 °F 77.0 °F 79% 29.99 in 8.0 mi ENE 9.2 mph 20.7 mph N/A   Mostly Cloudy
5:44 PM 82.4 °F 89.5 °F 75.2 °F 79% 30.00 in 8.0 mi ENE 15.0 mph - N/A   Scattered Clouds
6:41 PM 82.4 °F 89.5 °F 75.2 °F 79% 29.99 in 8.0 mi ENE 5.8 mph - N/A   Partly Cloudy
7:41 PM 78.8 °F - 75.2 °F 89% 30.02 in 8.0 mi ENE 6.9 mph - N/A   Partly Cloudy
8:44 PM 78.8 °F - 75.2 °F 89% 30.04 in 7.0 mi ENE 6.9 mph - N/A   Partly Cloudy
9:45 PM 78.8 °F - 75.2 °F 89% 30.09 in 7.0 mi ENE 5.8 mph - N/A   Partly Cloudy
10:43 PM 78.8 °F - 75.2 °F 89% 30.08 in 7.0 mi East 4.6 mph - N/A   Partly Cloudy
11:51 PM 78.8 °F - 75.2 °F 89% 30.07 in 7.0 mi East 4.6 mph - N/A   Partly Cloudy